TimeCST,TemperatureF,Dew PointF,Humidity,Sea Level PressureIn,VisibilityMPH,Wind Direction,Wind SpeedMPH,Gust SpeedMPH,PrecipitationIn,Events,Conditions,WindDirDegrees,DateUTC
12:15 AM,3.7,-1.5,79,30.54,10.0,Calm,Calm,-,N/A,,Mostly Cloudy,0,2013-12-07 06:15:00
12:35 AM,3.6,-1.3,80,30.54,10.0,NW,4.6,-,N/A,,Overcast,310,2013-12-07 06:35:00
12:55 AM,3.2,-1.8,80,30.54,10.0,Calm,Calm,-,N/A,,Overcast,0,2013-12-07 06:55:00
1:15 AM,3.4,-1.5,80,30.55,10.0,NNW,3.5,-,N/A,,Overcast,330,2013-12-07 07:15:00
1:35 AM,3.7,-1.7,78,30.55,10.0,NNW,5.8,-,N/A,,Overcast,340,2013-12-07 07:35:00
1:55 AM,3.6,-1.8,78,30.56,10.0,NNW,5.8,-,N/A,,Overcast,340,2013-12-07 07:55:00
2:15 AM,3.0,-2.2,79,30.56,10.0,North,4.6,-,N/A,,Overcast,350,2013-12-07 08:15:00
2:35 AM,2.3,-2.6,80,30.57,7.0,Calm,Calm,-,N/A,,Overcast,0,2013-12-07 08:35:00
2:55 AM,2.1,-3.1,79,30.57,5.0,NNW,4.6,-,N/A,,Haze,330,2013-12-07 08:55:00
3:15 AM,1.4,-3.6,79,30.57,10.0,NW,3.5,-,N/A,,Scattered Clouds,320,2013-12-07 09:15:00
3:35 AM,0.9,-4.2,79,30.58,10.0,NW,3.5,-,N/A,,Clear,310,2013-12-07 09:35:00
3:55 AM,0.3,-4.7,79,30.58,10.0,Calm,Calm,-,N/A,,Clear,0,2013-12-07 09:55:00
4:15 AM,-0.4,-4.9,81,30.58,10.0,NW,3.5,-,N/A,,Clear,310,2013-12-07 10:15:00
4:35 AM,-0.4,-4.7,82,30.59,10.0,WNW,4.6,-,N/A,,Clear,300,2013-12-07 10:35:00
4:55 AM,-0.6,-5.1,81,30.60,10.0,WNW,3.5,-,N/A,,Clear,300,2013-12-07 10:55:00
5:15 AM,-0.8,-5.4,81,30.60,10.0,WNW,3.5,-,N/A,,Clear,290,2013-12-07 11:15:00
5:35 AM,-1.1,-5.8,81,30.60,10.0,WNW,4.6,-,N/A,,Clear,290,2013-12-07 11:35:00
5:55 AM,-1.3,-6.0,81,30.60,10.0,WNW,3.5,-,N/A,,Clear,300,2013-12-07 11:55:00
6:15 AM,-1.7,-6.2,81,30.61,10.0,West,3.5,-,N/A,,Clear,280,2013-12-07 12:15:00
6:35 AM,-2.2,-6.3,83,30.61,10.0,Calm,Calm,-,N/A,,Clear,0,2013-12-07 12:35:00
6:55 AM,-2.2,-6.7,81,30.62,10.0,Calm,Calm,-,N/A,,Clear,0,2013-12-07 12:55:00
7:15 AM,-2.2,-6.7,81,30.62,10.0,WNW,3.5,-,N/A,,Clear,300,2013-12-07 13:15:00
7:35 AM,-1.8,-6.3,81,30.63,10.0,West,4.6,-,N/A,,Clear,270,2013-12-07 13:35:00
7:55 AM,-1.1,-5.8,81,30.63,10.0,West,5.8,-,N/A,,Clear,280,2013-12-07 13:55:00
8:15 AM,-0.4,-5.4,79,30.64,10.0,West,6.9,-,N/A,,Clear,280,2013-12-07 14:15:00
8:35 AM,0.3,-5.3,77,30.64,10.0,West,5.8,-,N/A,,Clear,280,2013-12-07 14:35:00
8:55 AM,1.2,-4.7,76,30.64,10.0,West,6.9,-,N/A,,Clear,280,2013-12-07 14:55:00
9:15 AM,2.1,-4.5,74,30.65,10.0,West,4.6,-,N/A,,Clear,270,2013-12-07 15:15:00
9:35 AM,2.7,-4.5,72,30.65,10.0,West,6.9,-,N/A,,Clear,260,2013-12-07 15:35:00
9:55 AM,3.4,-4.2,71,30.65,10.0,WNW,6.9,-,N/A,,Clear,290,2013-12-07 15:55:00
10:15 AM,4.1,-4.0,69,30.66,10.0,NW,4.6,-,N/A,,Clear,310,2013-12-07 16:15:00
10:35 AM,5.5,-2.9,68,30.66,10.0,WNW,6.9,-,N/A,,Clear,300,2013-12-07 16:35:00
10:55 AM,6.4,-2.6,67,30.66,10.0,West,8.1,-,N/A,,Clear,280,2013-12-07 16:55:00
11:15 AM,7.2,-2.7,64,30.65,10.0,West,5.8,-,N/A,,Clear,280,2013-12-07 17:15:00
11:35 AM,8.2,-2.0,63,30.64,10.0,West,3.5,-,N/A,,Clear,270,2013-12-07 17:35:00
11:55 AM,9.5,-2.2,59,30.63,10.0,West,6.9,-,N/A,,Clear,260,2013-12-07 17:55:00
12:15 PM,9.5,-3.5,56,30.63,10.0,West,6.9,-,N/A,,Clear,270,2013-12-07 18:15:00
12:35 PM,10.2,-3.5,54,30.62,10.0,NW,8.1,-,N/A,,Clear,310,2013-12-07 18:35:00
12:55 PM,11.7,-3.5,51,30.61,10.0,WNW,9.2,-,N/A,,Clear,290,2013-12-07 18:55:00
1:15 PM,11.8,-3.6,50,30.61,10.0,WSW,5.8,-,N/A,,Clear,250,2013-12-07 19:15:00
1:35 PM,12.2,-4.2,48,30.61,10.0,WSW,8.1,-,N/A,,Clear,250,2013-12-07 19:35:00
1:55 PM,12.6,-4.5,46,30.59,10.0,WSW,8.1,-,N/A,,Clear,250,2013-12-07 19:55:00
2:15 PM,12.9,-3.6,48,30.60,10.0,WSW,6.9,-,N/A,,Clear,250,2013-12-07 20:15:00
2:35 PM,12.2,-4.4,48,30.61,10.0,West,6.9,-,N/A,,Clear,280,2013-12-07 20:35:00
2:55 PM,12.6,-4.5,46,30.61,10.0,West,6.9,-,N/A,,Clear,260,2013-12-07 20:55:00
3:15 PM,12.2,-5.4,45,30.60,10.0,WNW,8.1,-,N/A,,Clear,290,2013-12-07 21:15:00
3:35 PM,12.2,-4.5,47,30.60,10.0,NW,5.8,-,N/A,,Clear,310,2013-12-07 21:35:00
3:55 PM,11.3,-5.1,48,30.59,10.0,WNW,5.8,-,N/A,,Clear,290,2013-12-07 21:55:00
4:15 PM,10.8,-4.7,50,30.59,10.0,West,4.6,-,N/A,,Clear,280,2013-12-07 22:15:00
4:35 PM,9.9,-4.9,51,30.59,10.0,WNW,3.5,-,N/A,,Clear,290,2013-12-07 22:35:00
4:55 PM,9.0,-4.9,53,30.59,10.0,Calm,Calm,-,N/A,,Clear,0,2013-12-07 22:55:00
5:15 PM,8.6,-5.1,54,30.59,10.0,Calm,Calm,-,N/A,,Clear,0,2013-12-07 23:15:00
5:35 PM,8.4,-4.7,55,30.59,10.0,West,3.5,-,N/A,,Clear,280,2013-12-07 23:35:00
5:55 PM,8.2,-4.9,55,30.59,10.0,Calm,Calm,-,N/A,,Clear,0,2013-12-07 23:55:00
6:15 PM,7.5,-5.1,56,30.58,10.0,WNW,3.5,-,N/A,,Clear,300,2013-12-08 00:15:00
6:35 PM,7.3,-5.3,56,30.58,10.0,Calm,Calm,-,N/A,,Clear,0,2013-12-08 00:35:00
6:55 PM,4.1,-4.2,69,30.56,10.0,Calm,Calm,-,N/A,,Clear,0,2013-12-08 00:55:00
7:15 PM,4.8,-3.8,68,30.56,10.0,Calm,Calm,-,N/A,,Clear,0,2013-12-08 01:15:00
7:35 PM,4.6,-4.0,67,30.57,10.0,Calm,Calm,-,N/A,,Clear,0,2013-12-08 01:35:00
7:55 PM,3.9,-3.8,70,30.57,10.0,Calm,Calm,-,N/A,,Clear,0,2013-12-08 01:55:00
8:15 PM,3.7,-3.1,73,30.57,10.0,Calm,Calm,-,N/A,,Clear,0,2013-12-08 02:15:00
8:35 PM,4.5,-4.0,68,30.56,10.0,Calm,Calm,-,N/A,,Clear,0,2013-12-08 02:35:00
8:55 PM,4.3,-3.6,70,30.56,10.0,Calm,Calm,-,N/A,,Clear,0,2013-12-08 02:55:00
9:15 PM,4.5,-4.0,68,30.56,10.0,North,5.8,-,N/A,,Clear,350,2013-12-08 03:15:00
9:35 PM,5.9,-5.1,61,30.56,10.0,North,3.5,-,N/A,,Clear,360,2013-12-08 03:35:00
9:55 PM,4.5,-4.9,65,30.56,10.0,Calm,Calm,-,N/A,,Clear,0,2013-12-08 03:55:00
10:15 PM,4.1,-4.2,69,30.55,10.0,Calm,Calm,-,N/A,,Clear,0,2013-12-08 04:15:00
10:35 PM,3.2,-4.0,72,30.55,10.0,Calm,Calm,-,N/A,,Clear,0,2013-12-08 04:35:00
10:55 PM,3.4,-2.7,76,30.56,10.0,Calm,Calm,-,N/A,,Clear,0,2013-12-08 04:55:00
11:15 PM,3.2,-3.3,74,30.57,10.0,Calm,Calm,-,N/A,,Scattered Clouds,0,2013-12-08 05:15:00
11:35 PM,3.2,-3.6,73,30.57,10.0,Calm,Calm,-,N/A,,Clear,0,2013-12-08 05:35:00
11:55 PM,3.4,-2.2,78,30.57,10.0,Calm,Calm,-,N/A,,Clear,0,2013-12-08 05:55:00